Location: Düngen
(52.0952°N, 10.0219°E)
Time: 18:14:04
(UTC+00:00)

Terra - Pass Details

Date: 11 March 2026
Orbit: 687 x 692 km, 98.0° (Epoch: 20 April)

Event Time Altitude Azimuth Distance (km) Brightness Sun altitude
Exits shadow 18:24:49 15° 106° (ESE) 1,824 3.3 -11.2°
Maximum altitude 18:27:35 25° 61° (ENE) 1,377 2.9 -11.6°
Drops below altitude 10° 18:31:26 10° 6° (N) 2,159 4.4 -12.2°
Sets 18:33:59 0° 354° (N) 3,079 5.4 -12.6°
